Tracking 31027 objects as of 19-Jul-2025
HD Live streaming from Space Station
objects crossing your sky now

DELTA 1 R/B(1)

Track DELTA 1 R/B(1) now!
10-day predictions


NORAD ID: 15392
Int'l Code: 1984-115B
Perigee: 676.9 km
Apogee: 2,299.6 km
Inclination: 21.5 °
Period: 115.6 minutes
Semi major axis: 7859 km
RCS: 10.0127 m2 (large)
Launch date: November 14, 1984
Source: United States (US)
Launch site: AIR FORCE EASTERN TEST RANGE (AFETR)

Note: This is a ROCKET BODY
Your satellite tracking list
DMSP 5D-2 F13 DEB
Track 1 satellite(s)




NASA's NSSDC Master Catalog

Two Line Element Set (TLE):
1 15392U 84115B   25199.48342950  .00000303  00000-0  14820-3 0  9994
2 15392  21.4894 133.3566 1032343  48.2651 320.1547 12.46036212834777
Source of the keplerian elements: AFSPC